GFSGBSN_sfc_rhum_147.txt.gz
RH
77 79 82 86 89 92 96 94 93 93 93 92 92 91 89 88 86 84 83 83 83 79 74 68 68 78 75 45 31 20 58 40 16 13 13 9 9 12 14 12 11 13 11 10 10 8 10
74 78 80 82 83 81 83 88 95 95 94 94 93 92 91 90 89 86 84 83 83 82 79 70 67 82 71 38 15 15 18 13 11 10 8 9 9 10 10 11 11 10 10 10 10 8 9
67 70 79 81 83 82 83 85 86 88 95 95 95 94 93 92 92 90 86 84 84 82 78 69 68 58 45 26 15 13 9 8 8 9 10 9 11 13 13 13 14 10 12 11 9 8 9
68 70 69 77 80 81 83 83 83 84 85 88 96 96 95 93 93 90 88 87 86 83 80 73 72 59 47 17 22 13 11 10 9 9 9 9 11 14 20 14 14 15 15 15 10 9 11
71 68 67 73 77 76 77 74 78 83 84 85 87 92 97 95 95 93 91 90 90 87 80 74 63 56 42 28 19 14 11 11 11 10 13 7 14 17 17 20 22 18 17 14 12 11 10
67 68 70 72 75 73 74 74 75 80 83 85 88 87 92 97 96 95 95 91 85 83 45 28 26 37 26 29 18 15 13 11 14 14 15 17 16 21 21 25 23 17 15 13 16 11 10
67 68 66 71 73 74 73 74 78 81 83 83 86 88 89 97 97 97 96 80 63 64 44 44 34 30 28 22 19 13 10 12 14 18 22 19 21 24 20 18 14 12 14 12 12 10 10
76 74 73 69 71 69 68 72 78 79 81 82 77 86 86 92 97 96 78 71 58 58 70 40 35 33 28 25 27 13 10 14 18 20 19 24 26 19 16 15 15 14 14 13 11 9 13
77 78 75 72 70 70 69 71 79 81 83 85 82 82 86 95 96 94 77 62 68 64 67 48 36 33 29 27 34 20 13 14 18 20 20 25 22 16 15 16 16 16 15 14 15 12 12
77 80 78 74 74 76 76 76 79 82 83 86 87 87 97 94 94 89 86 64 70 86 97 71 60 48 36 28 38 26 14 14 18 19 19 21 16 16 17 16 15 18 16 14 13 15 18
76 77 79 79 80 80 82 83 82 82 84 86 86 92 94 87 94 90 74 64 85 90 98 48 45 32 34 34 28 30 17 15 19 18 21 25 20 21 19 17 14 19 18 21 20 20 22
76 76 78 76 78 82 83 82 84 84 86 87 87 91 93 95 94 82 64 68 91 96 95 58 37 38 42 40 34 24 26 18 15 20 20 21 15 17 18 17 16 16 17 20 20 22 41
76 76 75 76 76 80 81 82 84 84 85 87 87 88 93 88 94 77 72 91 100 94 54 36 45 32 38 47 42 35 30 32 25 31 32 22 18 17 15 20 18 17 23 40 46 43 45
72 74 71 72 75 75 77 81 83 85 85 86 88 89 89 86 83 78 96 100 99 65 52 41 43 39 37 34 36 37 35 36 22 23 30 30 35 21 17 20 24 23 25 61 61 60 49
65 68 71 73 75 74 76 78 80 83 85 86 87 96 96 93 78 81 99 99 84 68 42 42 38 53 51 29 36 39 38 32 26 22 41 37 27 19 17 16 19 28 32 24 52 43 52
62 67 70 73 75 76 78 79 78 80 82 85 97 97 94 93 86 94 100 85 81 63 51 41 56 55 54 40 35 44 41 28 23 24 22 37 49 21 19 18 19 21 28 50 51 53 44
66 66 69 71 73 76 78 79 80 80 82 82 97 99 90 92 93 100 97 90 64 48 48 59 57 66 51 42 31 37 43 30 22 24 23 28 59 39 28 35 26 30 53 42 47 57 66
71 71 73 73 73 75 74 76 79 78 79 86 97 100 97 95 100 100 97 71 58 44 46 53 60 73 65 54 51 39 42 35 24 28 27 39 67 59 31 26 20 22 36 44 76 51 56
70 70 70 70 71 74 76 75 76 77 80 96 98 99 97 94 98 99 87 70 59 52 48 54 58 69 67 65 75 54 47 34 23 32 43 38 70 61 47 40 33 32 24 26 42 55 62
66 68 69 70 69 71 73 76 76 76 78 92 96 100 100 99 97 78 81 79 72 53 54 44 54 60 74 73 70 66 54 46 40 40 66 52 56 64 56 52 45 46 32 26 42 75 57
65 67 70 71 71 71 71 74 78 77 78 93 98 96 97 98 98 98 75 63 68 69 53 48 58 62 74 90 67 67 59 54 42 57 54 62 72 56 45 45 39 33 34 30 59 52 65
66 68 70 72 75 72 76 76 81 79 80 97 98 89 93 99 72 89 77 74 59 61 56 59 63 53 61 74 67 60 60 62 60 56 65 61 76 55 56 44 44 26 38 38 34 39 35
61 67 70 70 72 74 78 80 81 83 83 96 96 71 84 75 98 86 82 62 57 48 47 43 51 56 62 65 55 56 63 60 56 63 73 72 68 63 79 56 50 50 41 40 67 51 46
66 69 70 71 70 72 78 81 81 84 85 93 89 76 92 87 77 93 67 60 55 53 56 44 44 57 47 57 73 76 65 56 49 50 56 75 63 71 59 51 61 40 23 18 29 43 42
73 72 74 77 81 85 85 81 83 81 81 95 87 88 80 89 67 63 98 70 60 56 56 48 42 38 65 76 99 99 99 96 70 51 53 53 64 84 74 48 39 48 35 39 40 48 34
80 87 91 93 91 90 89 90 87 88 83 93 89 81 75 80 72 55 67 65 71 71 69 58 49 70 72 86 98 96 95 83 87 67 49 48 58 74 72 56 65 63 32 32 35 90 61
96 94 88 83 84 83 82 82 82 84 87 95 94 76 85 89 60 48 64 67 57 67 72 67 73 86 80 93 90 85 84 61 77 77 70 67 68 68 66 86 77 48 38 36 61 83 66
93 86 82 81 82 82 82 82 84 87 87 94 96 91 78 86 78 51 46 49 61 64 75 83 91 95 99 99 78 97 91 75 66 61 60 63 69 77 74 89 89 42 41 58 80 70 71
86 84 83 84 85 86 88 88 88 89 90 89 98 93 77 90 89 85 64 76 76 46 56 79 78 93 97 98 93 76 87 86 72 78 54 75 77 76 71 80 65 53 61 60 62 69 72

GFSGBSN_sfc_rhum_153.txt.gz
RH
74 78 80 82 82 86 86 88 93 97 97 95 94 94 93 92 91 90 90 88 88 86 84 80 80 78 55 25 25 23 67 54 22 15 15 13 12 15 17 16 13 15 14 12 13 11 10
71 76 79 79 78 79 79 82 86 86 88 95 97 96 96 95 94 92 91 91 90 88 87 83 79 77 38 40 21 19 25 18 16 15 13 14 16 14 14 16 15 13 16 12 13 11 10
70 70 70 72 81 80 79 82 82 83 84 86 87 93 97 96 96 95 93 92 90 89 89 88 77 57 48 37 18 21 18 16 14 13 14 14 16 15 18 16 18 17 18 16 12 11 10
71 67 68 68 74 77 75 80 77 80 83 84 84 86 88 96 97 96 95 94 93 91 91 87 81 63 40 22 27 24 23 23 18 12 12 15 16 20 19 18 17 19 21 21 17 12 10
69 71 69 72 74 76 76 75 76 76 78 82 83 84 87 88 94 96 96 95 94 92 90 88 55 50 52 35 31 25 21 22 18 16 16 9 14 20 18 24 25 25 24 22 15 12 13
68 70 69 72 75 76 74 75 77 79 81 83 84 85 89 87 91 96 97 96 94 93 62 47 30 59 46 44 28 20 23 20 16 19 16 19 21 22 27 26 28 27 24 18 18 14 15
67 68 69 71 75 70 69 74 78 80 82 82 83 82 86 85 88 97 96 90 90 83 65 69 54 56 42 31 29 23 20 16 14 17 22 24 24 24 20 24 23 24 25 25 20 11 15
68 70 71 72 72 69 69 70 78 80 81 82 82 84 84 86 93 96 86 93 81 74 92 61 54 44 38 36 45 42 19 18 20 22 22 28 29 21 18 19 22 24 26 26 19 13 14
77 76 74 73 71 72 71 73 78 79 81 83 84 84 86 88 92 94 87 76 61 68 87 76 63 59 54 44 56 53 24 18 20 23 23 25 22 22 24 25 26 28 25 21 15 17 16
81 81 79 74 72 75 78 78 79 80 82 83 85 84 90 93 94 88 91 64 67 85 92 70 71 60 53 48 61 42 38 23 22 22 23 25 18 19 20 26 26 32 21 17 16 18 20
80 82 81 80 80 82 82 84 83 80 82 83 86 85 93 86 95 93 84 76 86 87 87 37 55 44 49 53 48 48 38 26 33 23 22 28 27 28 23 22 23 27 20 20 22 23 24
78 80 81 82 82 83 83 83 83 84 86 85 86 86 91 92 95 90 78 84 89 92 92 50 54 62 63 55 49 39 47 23 27 22 24 28 22 22 24 22 22 21 20 26 29 26 28
78 80 80 81 82 83 84 84 85 85 86 86 87 87 93 87 90 82 83 92 100 97 49 42 48 55 61 63 57 45 46 38 35 38 37 26 22 22 20 23 20 19 23 36 32 32 32
78 79 80 81 81 80 80 81 83 84 86 86 87 88 92 92 93 83 92 100 98 66 56 42 42 38 54 59 60 56 50 57 35 34 43 46 51 27 23 22 22 23 26 52 48 45 40
73 77 77 78 80 81 81 80 82 84 84 86 88 100 99 98 89 90 97 99 82 74 56 57 48 55 42 49 49 61 66 60 51 34 49 48 41 26 23 21 18 27 29 29 51 55 57
66 71 76 78 80 81 81 80 81 83 83 84 98 99 99 94 95 96 100 79 78 61 47 63 73 56 56 36 59 60 65 60 53 43 39 42 50 29 24 19 22 26 27 42 54 46 41
69 71 75 79 79 81 81 81 82 81 79 83 98 99 88 96 96 99 97 89 68 47 51 68 75 73 70 70 61 62 61 50 42 50 43 34 53 41 31 36 30 36 51 47 47 53 55
74 74 78 81 78 79 79 78 80 81 79 86 98 99 96 95 99 100 96 79 59 55 52 59 67 75 80 73 76 66 65 55 45 44 42 46 67 54 32 31 25 27 39 49 73 56 61
72 74 79 84 81 75 77 78 79 80 80 98 100 97 97 89 97 96 81 82 68 59 56 65 62 65 76 86 87 79 70 57 52 50 54 52 70 93 55 40 33 32 31 36 56 64 62
74 72 73 75 74 74 75 78 77 79 78 95 99 99 99 99 90 79 81 87 86 65 63 53 58 56 60 64 79 83 76 65 66 60 70 62 70 63 64 57 51 45 33 30 71 88 45
73 72 73 76 73 73 72 73 76 78 79 95 100 98 86 98 97 97 71 64 82 78 64 57 71 58 71 76 62 58 71 71 60 68 72 70 88 69 54 40 43 48 47 50 83 54 76
69 70 70 72 71 71 72 73 75 77 79 96 98 98 96 90 84 77 95 79 70 72 69 68 66 56 62 70 74 84 69 83 75 77 85 82 97 89 70 57 53 57 61 71 70 48 48
62 62 66 67 68 69 70 72 76 78 82 98 98 96 93 73 80 98 84 90 71 61 60 57 61 64 68 59 63 70 85 85 86 87 96 98 98 99 93 63 80 98 79 74 75 59 54
68 63 62 62 61 63 69 74 76 78 80 94 98 99 98 90 83 79 68 71 90 77 73 61 61 76 53 67 83 86 90 89 89 92 80 93 99 94 96 90 96 65 50 54 63 63 57
71 68 65 62 63 67 71 73 75 79 79 96 88 93 91 92 70 69 77 70 68 69 88 77 56 53 71 82 92 96 92 86 78 78 82 70 91 98 96 85 75 60 44 54 64 65 55
65 64 64 66 70 71 72 73 76 77 76 91 92 79 90 87 84 57 63 63 77 77 79 99 68 76 81 92 98 89 88 84 90 91 64 62 73 82 96 96 95 66 47 38 38 63 68
66 68 70 71 71 72 74 75 76 78 79 88 94 88 91 96 83 63 72 72 65 72 82 91 81 88 82 94 85 89 88 82 95 89 92 95 95 94 96 94 85 58 48 45 60 69 75
72 71 69 68 72 78 88 86 82 79 75 87 88 90 97 99 87 68 60 65 78 68 75 79 80 88 99 91 92 90 98 86 90 83 90 89 93 96 97 95 91 55 53 56 72 78 78
70 70 73 87 92 91 89 91 90 85 83 82 95 83 84 96 94 75 66 52 53 55 79 78 68 78 82 94 97 98 99 95 82 94 74 88 83 87 81 82 70 75 71 72 66 73 77

GFSGBSN_sfc_rhum_156.txt.gz
RH
74 77 80 81 81 86 85 88 92 96 98 97 95 94 94 94 93 93 92 92 92 90 88 87 89 76 54 35 39 22 61 49 17 14 14 13 13 15 16 15 13 18 15 13 12 14 11
75 75 77 78 78 79 79 82 84 86 87 90 95 97 96 96 95 95 94 93 92 91 90 89 88 76 33 55 26 20 22 18 17 15 14 14 16 17 17 18 16 15 17 14 14 13 13
77 76 76 78 80 79 77 80 81 82 84 85 85 87 93 97 96 96 95 94 94 93 91 91 87 60 45 59 22 24 22 16 14 12 15 14 14 15 21 17 18 20 20 18 15 14 12
72 70 70 72 74 80 79 77 76 78 82 82 82 84 86 86 91 96 96 96 95 94 93 92 88 65 52 32 28 28 24 23 21 22 16 13 14 16 21 20 18 19 22 23 17 15 12
71 72 70 73 74 74 74 75 75 73 75 80 83 84 85 88 88 90 97 96 96 94 92 91 66 57 64 41 39 29 25 27 22 15 18 10 14 21 19 22 22 25 20 24 18 15 14
67 70 72 72 76 75 77 76 75 75 79 82 84 85 87 89 87 91 92 96 93 92 68 64 35 70 58 51 30 26 25 24 24 16 17 18 22 21 26 22 26 25 24 21 21 17 17
70 69 70 72 74 70 69 72 77 80 80 80 81 83 84 86 88 90 96 93 90 89 79 79 62 68 51 34 33 33 20 16 17 18 21 26 25 27 21 22 23 27 25 26 24 18 19
73 74 73 72 74 69 69 69 80 80 81 80 80 83 82 85 93 86 88 96 87 78 94 70 65 54 44 40 54 48 21 24 23 24 24 27 28 24 21 20 22 24 29 28 23 19 16
75 75 74 73 73 74 69 72 79 80 81 81 80 81 84 88 87 94 92 91 68 79 95 76 72 66 58 54 65 56 32 22 20 26 24 29 24 23 22 26 26 29 29 29 24 17 17
79 79 79 76 75 77 77 78 80 81 82 82 82 82 88 89 93 89 93 82 71 83 89 67 74 65 60 53 62 44 41 33 22 24 24 26 21 22 25 27 28 36 28 25 20 20 22
83 83 82 80 78 79 80 83 82 80 82 82 84 83 92 86 95 97 82 80 84 80 51 35 61 48 56 57 50 53 45 41 55 24 23 36 26 27 26 24 25 30 27 27 22 22 26
84 82 82 82 81 83 85 85 83 83 81 84 84 84 90 93 96 91 80 82 87 86 56 39 57 65 72 65 56 48 57 35 38 39 25 34 24 25 23 23 24 25 23 26 30 26 31
82 82 80 81 83 82 81 83 84 84 84 85 86 86 92 86 87 84 88 92 98 88 39 35 47 66 69 71 65 54 48 51 54 56 64 39 26 25 21 26 24 19 24 37 35 33 34
81 80 79 81 80 82 80 81 83 84 85 86 86 88 90 90 94 86 92 100 98 68 63 41 44 43 51 62 64 62 58 59 52 37 51 61 64 27 24 24 28 24 27 56 52 42 36
81 80 81 80 81 81 81 80 80 80 81 85 89 99 99 97 91 89 98 97 83 77 56 59 44 50 49 41 49 58 66 65 54 38 53 54 53 30 28 26 22 30 32 28 51 52 57
79 79 82 82 81 80 80 80 80 78 80 83 98 100 97 91 94 94 100 84 80 60 53 62 65 52 54 39 46 62 62 60 58 47 40 48 58 31 26 22 26 28 26 42 52 44 42
88 77 77 80 81 81 80 80 80 78 79 84 98 99 90 97 94 99 96 91 69 53 53 67 70 75 74 74 67 68 66 53 46 50 53 49 64 50 30 36 33 39 49 42 39 52 42
86 81 76 77 79 80 79 79 81 82 79 86 98 100 92 96 99 100 97 79 62 55 57 62 67 81 81 76 80 74 74 64 52 50 53 64 81 82 56 36 30 27 38 40 55 51 57
81 81 77 73 74 82 81 77 80 80 79 98 100 98 93 97 96 97 78 74 71 69 59 67 67 63 72 82 83 77 70 57 54 60 66 62 98 98 86 60 56 34 30 38 55 64 53
80 81 74 72 76 82 84 80 80 79 80 94 100 99 99 99 89 77 76 77 79 72 70 62 63 63 69 69 74 84 78 63 66 66 72 69 80 88 87 70 63 69 45 41 64 80 41
78 79 74 74 77 77 76 84 75 79 76 93 100 97 86 98 98 92 78 69 77 82 69 68 71 69 68 79 69 67 58 54 47 59 75 77 91 90 82 70 49 42 43 44 65 43 56
75 76 76 76 77 76 75 78 86 76 78 94 99 99 98 90 82 82 98 86 74 67 71 72 75 62 64 73 63 81 72 82 75 83 89 90 92 95 93 71 57 69 77 63 56 49 45
74 78 76 74 76 74 73 72 78 80 82 99 98 95 96 87 92 94 82 74 89 68 59 61 64 70 72 66 64 62 61 64 72 85 94 96 99 100 85 72 85 99 86 79 81 68 58
73 74 72 70 69 69 70 73 76 80 81 98 98 96 95 90 83 86 84 78 72 66 90 66 60 76 62 58 75 84 93 90 93 90 84 98 98 97 92 96 97 71 53 59 62 62 60
69 69 69 65 66 67 70 73 74 74 76 96 96 98 92 92 73 73 74 71 72 69 70 88 93 74 76 79 83 97 92 90 70 82 95 89 92 97 92 94 88 74 54 65 72 65 58
74 72 66 68 68 71 70 70 72 73 72 91 91 88 99 95 90 70 69 71 90 93 91 90 82 84 89 95 97 91 92 78 82 86 81 88 87 90 98 96 95 64 47 46 53 74 65
67 66 66 67 70 72 72 72 72 70 71 88 94 88 90 98 80 68 74 74 68 81 92 85 86 93 84 93 95 86 94 73 79 80 93 97 96 92 86 93 82 63 52 49 61 67 84
66 66 68 68 72 75 76 77 76 75 72 85 86 93 95 97 85 70 60 67 76 68 76 77 85 94 93 96 96 96 97 87 88 83 91 90 96 96 92 95 89 57 55 56 66 90 88
68 71 72 72 74 75 74 76 77 76 77 78 93 84 90 99 94 75 65 51 52 61 69 72 67 74 84 99 94 93 98 99 93 97 83 92 83 90 86 83 74 75 73 80 75 85 87

GFSGBSN_sfc_rhum_159.txt.gz
RH
75 76 80 82 82 83 84 85 88 92 97 97 97 96 95 94 94 93 93 93 93 92 91 90 91 86 42 50 48 19 58 39 12 10 10 10 12 11 11 10 10 11 11 11 10 10 7
78 74 76 76 77 79 80 80 84 85 87 88 91 94 97 96 95 95 95 94 93 93 93 91 90 81 34 71 30 20 19 15 12 10 9 9 10 11 12 12 12 12 13 13 10 9 9
75 79 78 80 80 78 77 79 79 81 83 84 84 85 87 89 94 96 96 96 94 94 94 92 89 54 44 60 22 22 21 15 11 10 10 10 11 11 14 13 13 14 14 14 12 10 9
72 72 69 72 74 82 82 77 76 76 78 79 80 83 84 85 87 87 92 96 96 95 95 92 89 49 67 40 23 27 23 24 18 18 19 12 12 14 14 14 14 13 15 14 12 10 10
72 70 71 71 75 75 74 75 75 70 74 79 82 85 86 89 89 88 92 90 94 95 93 92 56 47 63 46 43 29 25 30 24 17 14 10 14 18 16 16 15 17 15 18 15 11 10
72 70 71 73 75 75 77 77 76 75 79 82 82 85 85 88 88 89 90 89 95 87 66 62 35 62 50 47 29 28 23 23 20 16 16 16 18 18 20 15 33 20 18 18 17 12 12
71 71 72 74 76 73 70 72 78 79 80 79 77 81 83 85 88 90 93 84 69 70 71 68 56 64 52 35 34 28 16 16 14 18 22 20 20 23 18 19 17 19 19 18 18 16 15
77 76 74 72 74 72 69 71 78 81 80 80 78 80 81 85 89 86 86 91 81 70 88 67 66 59 49 40 51 40 23 20 20 22 21 22 24 22 19 19 19 20 21 20 18 16 17
79 78 76 76 75 74 72 72 78 82 80 82 80 81 82 85 85 90 85 87 63 70 91 74 69 63 53 52 58 46 32 24 21 26 22 26 24 22 21 21 21 23 23 24 20 18 13
80 82 79 76 75 76 76 77 79 81 81 82 82 82 87 89 87 90 89 80 69 79 80 51 64 60 57 52 54 43 38 31 22 25 23 23 20 23 24 25 23 30 23 21 22 21 22
79 82 83 80 80 80 81 81 81 81 82 83 81 83 89 85 91 90 81 77 77 73 55 32 55 42 54 49 44 43 42 43 46 25 24 32 24 24 26 24 23 27 26 26 24 22 20
81 79 81 83 80 82 81 80 83 84 83 83 82 82 89 92 94 86 78 80 84 79 47 24 52 63 69 61 55 44 49 39 40 48 30 28 21 20 22 21 23 24 21 22 23 21 24
83 81 81 82 82 81 80 83 85 84 84 84 85 84 91 83 82 85 84 94 95 70 31 28 46 64 65 64 64 56 55 59 56 67 68 52 39 22 20 21 21 18 24 31 28 26 29
83 84 80 82 81 81 81 81 82 81 82 83 84 87 90 89 87 84 93 99 95 59 37 38 39 36 56 54 60 58 53 58 52 38 51 64 55 36 24 27 37 25 24 38 45 34 28
77 84 84 82 81 82 82 81 81 82 82 81 89 96 98 94 88 87 99 98 78 66 50 60 37 33 38 33 37 49 62 61 51 42 59 56 51 31 25 23 27 32 31 25 43 40 38
78 82 82 82 82 81 81 83 81 80 80 83 98 97 94 89 92 92 100 77 71 56 48 50 47 42 40 34 34 40 53 51 54 49 52 51 61 34 23 22 23 29 25 39 57 86 71
77 78 77 89 83 84 84 84 82 82 82 86 97 98 86 96 95 99 97 80 59 52 48 52 54 67 65 66 59 57 51 51 44 44 52 48 61 48 26 32 30 32 40 36 38 42 49
74 77 78 88 87 84 81 80 80 80 80 87 98 100 90 96 99 100 91 69 61 54 54 56 59 70 70 66 67 58 63 59 50 47 46 65 80 80 56 36 24 24 33 33 54 43 42
71 76 74 76 92 83 82 82 78 76 81 98 100 97 94 95 98 96 78 72 62 63 55 56 65 57 62 68 65 64 54 46 52 54 59 55 85 82 63 59 47 44 42 40 59 70 48
70 75 78 80 85 85 81 82 80 79 77 92 99 99 100 99 87 72 74 70 73 67 64 59 61 59 65 67 63 71 68 58 55 52 69 65 75 80 75 64 60 63 50 36 50 72 59
70 75 78 81 83 79 78 80 81 78 78 96 100 99 85 98 97 87 71 61 68 70 65 66 69 63 60 62 62 61 55 52 49 48 50 59 64 55 59 60 58 57 54 58 70 47 58
70 75 79 79 82 81 83 84 86 80 77 99 99 98 95 87 74 95 87 75 68 59 61 70 70 57 64 68 57 56 60 54 58 72 84 89 79 84 84 66 66 69 62 52 55 52 42
71 77 80 78 76 79 79 77 76 84 88 100 99 91 88 78 89 91 77 82 81 67 61 59 62 69 72 63 57 57 59 57 59 65 67 72 84 80 72 70 73 91 75 68 75 54 47
72 73 75 74 77 77 76 78 80 80 86 100 97 94 94 92 76 77 70 72 68 65 82 66 66 91 77 78 67 68 77 73 70 64 71 75 83 76 72 70 83 50 51 51 60 60 55
75 76 76 73 74 71 72 76 79 79 83 98 98 98 95 91 67 74 75 75 72 70 73 70 67 72 77 89 96 91 83 80 68 66 65 68 68 81 80 63 48 48 45 51 62 60 50
73 70 72 74 70 70 72 72 72 74 75 95 98 92 100 84 74 56 66 67 78 78 76 75 70 78 82 77 87 93 76 58 55 70 69 71 76 80 82 85 67 50 40 37 46 62 47
68 71 71 72 73 75 73 72 69 69 70 92 98 87 89 98 78 68 68 68 64 71 76 71 81 87 76 88 81 81 78 50 59 55 71 89 88 85 76 74 51 49 39 42 57 55 67
67 68 70 69 71 71 71 71 70 68 67 84 91 92 92 96 83 69 60 60 68 66 68 67 69 81 83 94 80 81 84 58 58 57 56 63 82 89 76 80 79 48 48 54 62 80 76
67 67 67 71 72 72 72 73 72 71 71 74 95 92 88 99 99 77 66 54 50 52 65 68 57 74 66 83 80 64 69 95 76 67 77 77 66 69 71 63 71 71 76 72 69 76 77

GFSGBSN_sfc_rhum_165.txt.gz
RH
75 75 75 76 78 80 81 82 83 87 88 90 92 94 94 95 95 95 95 95 94 94 93 93 92 90 54 35 29 18 48 40 10 7 9 12 14 14 15 13 10 11 11 9 7 7 7
76 72 71 72 72 75 77 78 78 80 80 80 82 83 83 84 86 90 93 95 96 95 94 93 91 96 38 43 21 21 20 20 14 10 12 12 13 10 13 14 13 11 9 9 8 8 8
74 76 72 72 72 71 74 72 72 72 73 74 75 78 79 79 80 84 86 86 90 95 95 92 89 50 40 27 14 15 20 22 20 16 17 14 10 13 15 15 11 10 12 12 10 9 8
72 71 75 75 67 72 74 67 67 68 70 72 75 78 82 83 85 87 87 87 88 91 91 92 90 46 35 12 12 18 17 18 18 18 16 14 10 13 17 16 15 16 15 16 12 10 8
74 72 73 71 73 70 70 67 65 67 68 70 73 77 80 83 87 88 88 88 88 88 88 88 55 40 26 28 21 21 19 23 20 22 18 10 11 18 18 19 22 17 19 16 13 9 10
75 74 71 69 75 76 72 71 70 68 67 70 71 72 76 82 84 88 88 88 72 84 68 39 31 33 21 14 10 18 18 18 21 24 24 17 17 20 19 22 25 18 17 16 16 12 11
78 79 76 75 78 77 71 70 74 74 71 73 72 69 72 80 84 86 70 35 44 54 41 23 19 20 16 23 22 20 15 16 17 19 30 23 22 24 18 19 16 16 18 18 14 12 13
81 79 80 79 76 77 73 73 81 81 76 74 75 72 74 81 85 86 61 30 44 48 34 17 20 18 15 12 22 16 15 15 18 19 19 22 24 16 16 18 18 18 21 19 15 12 15
83 83 80 80 78 76 76 77 80 81 83 79 78 74 75 85 85 70 38 40 43 44 38 17 13 14 14 13 18 17 12 22 16 20 17 23 18 15 18 20 22 23 24 22 21 17 16
82 84 83 80 79 78 79 79 81 81 83 82 81 76 78 86 75 41 38 45 44 55 36 14 22 24 25 20 25 16 13 12 22 23 16 16 15 15 20 22 20 24 18 20 21 25 26
83 83 83 82 81 84 83 83 82 80 84 84 82 78 77 85 57 40 53 49 52 61 57 14 24 25 31 28 28 30 20 16 19 26 24 22 17 19 19 18 15 18 15 20 22 23 22
84 84 83 83 83 82 83 84 83 86 83 84 83 80 83 63 54 50 50 58 68 73 49 14 23 34 39 37 34 33 38 26 22 24 23 22 15 17 17 16 17 18 22 22 22 22 29
84 83 83 84 83 82 82 82 81 82 82 86 83 83 73 43 46 48 57 63 80 76 11 10 16 26 26 30 32 32 41 47 41 46 40 23 18 17 18 21 19 21 26 30 28 30 27
84 82 82 83 84 83 82 83 82 82 81 83 86 84 68 44 38 50 69 90 95 18 14 15 19 19 22 26 23 23 31 33 36 36 40 36 33 22 19 22 22 23 23 35 35 29 22
77 79 81 82 83 84 85 82 83 84 84 81 83 68 75 63 52 52 89 100 51 25 13 12 13 18 18 16 22 24 26 28 24 44 48 31 25 24 26 21 23 31 32 24 41 34 42
74 76 78 80 84 84 84 85 82 82 81 82 63 79 59 58 62 56 98 73 36 19 15 17 18 18 20 16 17 17 20 20 42 39 38 37 46 35 31 24 24 29 26 60 58 72 60
71 71 74 76 80 84 86 84 82 81 82 82 88 97 49 56 69 77 98 63 33 22 21 28 25 24 20 20 18 20 19 23 32 51 31 34 46 31 25 30 26 32 38 34 36 61 48
74 71 74 75 76 77 80 83 84 82 81 86 94 100 56 77 97 91 91 45 38 22 22 30 32 33 28 22 25 28 30 29 34 28 30 30 44 38 27 25 16 22 40 38 59 54 46
72 69 69 73 75 76 79 78 84 84 82 95 100 98 75 81 98 93 52 42 34 31 27 28 33 30 28 28 34 33 28 32 28 35 45 36 41 41 29 20 16 27 42 29 28 36 66
75 69 68 69 70 73 76 74 81 86 82 96 100 100 100 100 74 56 52 47 40 30 30 30 27 27 32 32 28 33 30 23 29 32 50 42 31 41 52 35 35 80 80 59 72 88 51
73 69 70 69 69 71 72 74 78 86 83 99 100 99 66 99 100 71 49 41 43 41 36 31 36 37 38 38 34 34 30 26 28 36 30 30 45 31 22 18 18 20 22 37 59 56 65
69 69 72 73 68 71 73 76 78 88 86 100 100 99 75 56 55 70 65 51 38 34 39 56 52 38 36 36 33 36 27 29 28 24 34 32 51 32 34 22 19 20 17 17 17 16 15
68 66 70 72 70 71 73 78 80 80 86 100 99 69 57 63 67 75 59 51 41 31 30 43 69 68 50 49 40 40 45 36 40 36 45 43 51 49 50 29 34 65 32 26 48 24 26
66 66 66 66 69 71 75 79 81 89 88 99 95 65 85 75 57 62 53 46 42 36 43 49 51 48 52 47 44 44 41 38 34 30 29 41 48 46 54 40 68 33 20 18 21 23 25
67 68 69 70 72 70 75 80 82 82 87 98 96 96 86 80 40 35 40 47 41 36 47 68 48 45 62 54 65 66 58 54 45 34 33 35 42 62 67 50 33 24 17 18 24 25 18
67 67 68 70 70 72 79 81 81 88 93 95 97 92 96 92 65 54 70 41 51 52 61 52 48 48 60 66 85 80 53 37 55 34 27 28 35 55 57 59 61 31 16 14 19 46 21
67 68 68 68 73 76 79 73 74 78 92 94 98 81 93 90 48 47 62 70 40 44 51 48 48 55 51 71 75 67 56 31 44 47 46 47 46 56 56 57 42 22 17 18 47 41 38
68 67 68 74 75 75 74 76 77 75 85 92 95 80 67 81 58 52 45 56 61 66 52 41 52 52 71 85 65 59 52 35 36 28 36 60 88 78 62 65 76 23 20 32 28 28 41
68 67 68 69 69 70 72 73 74 72 71 75 69 68 64 86 74 59 47 35 36 32 40 34 64 37 42 56 44 34 52 54 40 45 27 50 36 44 49 61 36 33 39 42 45 46 50